Regional Weather Roundup
Issued by NWS

Home | Current Version | Previous Version | Text Only | Print | Product List | Glossary On
Versions: 1 2 3 4 5 6 7 8 9 10 11 12 13 14 15 16 17 18 19 20 21 22 23 24 25 26 27 28 29 30 31 32 33 34 35 36 37 38 39 40 41 42 43 44 45 46 47 48 49 50
000
ASHW40 PHFO 040512
RWRHI

WEATHER ROUNDUP FOR HAWAII
NATIONAL WEATHER SERVICE HONOLULU HI
700 PM HST TUE MAY 03 2016

THIS IS AN AUTOMATED REPORT THAT HAS NOT BEEN QUALITY CONTROLLED.

NOTE..."FAIR" INDICATES FEW OR NO CLOUDS BELOW 12,000 FEET WITH NO
SIGNIFICANT WEATHER AND/OR OBSTRUCTIONS TO VISIBILITY.

* - THESE SITES REPORT LIMITED FIELDS

HIZ001>004-040600-
KAUAI-NIIHAU-

CITY           SKY/WX    TMP DP  RH WIND       PRES   REMARKS
LIHUE APT      CLOUDY    77  67  71 NE20      30.12S
PORT ALLEN*      N/A     77 N/A N/A NE17G25     N/A
POIPU*           N/A     77 N/A N/A NE10G23     N/A
PRINCEVILLE*     N/A     75 N/A N/A E8G15       N/A
KOKOLE POINT*  NOT AVBL
MOLOAA DAIRY*    N/A     75  66  73 E5G12       N/A
WAIMEA HTS*    NOT AVBL
PUU OPAE*      NOT AVBL
PUU LUA*       NOT AVBL
MAKAHA RIDGE*  NOT AVBL
$$

HIZ005>011-040600-
OAHU-

CITY           SKY/WX    TMP DP  RH WIND       PRES   REMARKS
HONOLULU       PTCLDY    77  67  71 NE10      30.08R
KALAELOA       CLEAR     76  64  66 NE8       30.09R
KANEOHE MCB    NOT AVBL
WHEELER FIELD  DRIZZLE   70  68  94 SW3       30.09R
BELLOWS*       NOT AVBL
KAHUKU*        NOT AVBL
WHEELER*       NOT AVBL
WAIANAE HARBOR NOT AVBL
DILLINGHAM*      N/A     81  75  83 MISG        N/A
KAHUKU TRN*      N/A     70  66  88 CALM        N/A
KAWAILOA*        N/A     68  64  88 SE3G15      N/A
KII*             N/A     73  70  88 NE21G28     N/A
MAKUA RANGE*   NOT AVBL
OAHU FOREST NW NOT AVBL
SCHOFIELD BRK*   N/A     70  66  88 SW1         N/A
SCHOFIELD S*   NOT AVBL
WAIANAE VLY*   NOT AVBL
KUAOKALA*      NOT AVBL
HONOULIUULI*   NOT AVBL
MOKUOLOE IS*   NOT AVBL
PALEHUA*       NOT AVBL
WAIAWA PHB*    NOT AVBL
$$

HIZ012>013-040600-
MOLOKAI-

CITY           SKY/WX    TMP DP  RH WIND       PRES   REMARKS
MOLOKAI AIRPT  CLOUDY    74  67  78 NE12G20   30.09R
KALAUPAPA      NOT AVBL
MAKAPULAPAI*   NOT AVBL
MOLOKAI 1*     NOT AVBL
PUU ALII*      NOT AVBL
$$

HIZ016-040600-
KAHOOLAWE-

CITY           SKY/WX    TMP DP  RH WIND       PRES   REMARKS
KAHOOLAWE*     NOT AVBL
HAKIOAWA*      NOT AVBL
HONOKANAIA*      N/A     78  64  60 NE13G24     N/A
KANELOA*         N/A     75  63  64 E17G28    30.13R
KEALIALALO*    NOT AVBL
LUA MAKIKA*    NOT AVBL
$$

HIZ014>015-040600-
LANAI-

CITY           SKY/WX    TMP DP  RH WIND       PRES   REMARKS
LANAI CITY     FAIR      70  65  84 NE12      30.13R
LANAI 1*       NOT AVBL
$$

HIZ017>028-040600-
MAUI-

CITY           SKY/WX    TMP DP  RH WIND       PRES   REMARKS
KAHULUI        PTCLDY    76  67  73 NE17G24   30.07R
KAPALUA-W MAUI NOT AVBL
HANA AIRPORT   NOT AVBL
HANA*            N/A     75 N/A N/A SE2         N/A
HALEAKALA SUMM   N/A     46  25  42 E17         N/A
MAALAEA BAY*   NOT AVBL
HALEAKALA*     NOT AVBL
KAUPO GAP*     NOT AVBL
KULA 1*          N/A     54  53  97 SW1G7       N/A
$$

HIZ023>026-040600-
BIG ISLAND OF HAWAII COAST AND LOWER SLOPES-

CITY           SKY/WX    TMP DP  RH WIND       PRES   REMARKS
KAILUA KONA    CLOUDY    79  68  69 S5        30.05R
HILO           MOCLDY    76  66  71 E5        30.10R
HONOKAA*         N/A     70 N/A N/A VRB1        N/A
KAWAIHAE MWT*    N/A     79 N/A N/A W3          N/A
KAWAIHAE*      NOT AVBL
SOUTH POINT*     N/A     72 N/A N/A N14G22      N/A
UPOLU AIRPORT*   N/A    N/A N/A N/A NE16G24     N/A
KAMUELA*       MOCLDY    64  61  88 NE16      30.16S
HAKALAU*         N/A     48  45  87 W3          N/A
KALOKO-HONOKO* NOT AVBL
PALI 2*          N/A     64  57  77 S15G24      N/A
KEALAKOMO*       N/A     77  63  61 NE16G26     N/A
KAUPULEHU*     NOT AVBL
KAPAPALA*        N/A     69  64  83 W2G10       N/A
LOWER KAHUKU*  NOT AVBL
PUHE CS*       NOT AVBL
PUHO CS*       NOT AVBL
PTA KEAMUKU*     N/A     63  55  77 CALM        N/A
WAIKOLOA*      NOT AVBL
$$

HIZ027>028-040600-
BIG ISLAND OF HAWAII INTERIOR AND SUMMMITS-

CITY           SKY/WX    TMP DP  RH WIND       PRES   REMARKS
BRADSHAW FIELD CLOUDY    57  52  82 W6        30.36R
MK VISITOR CEN   N/A     55  18  22 E12         N/A
MAUNA KEA*       N/A     39  14  35 E16         N/A
MAUNA LOA*       N/A    N/A N/A N/A MISG        N/A
MAUNA LOA 1*   NOT AVBL
PTA KIPUKA*      N/A     72  70  94 NW6G12      N/A
PTA RANGE 17*    N/A     57  54  88 W5G12       N/A
PTA WEST*        N/A     63  57  82 W8G15       N/A
NENE CABIN*    NOT AVBL
AHUMOA*        NOT AVBL
PTA PORTABLE*  NOT AVBL
PUU MALI*        N/A     55  34  44 E23G35      N/A
$$

HIC003-040600-
NORTHWEST ISLANDS-

CITY           SKY/WX    TMP DP  RH WIND       PRES   REMARKS
MIDWAY ISLAND  NOT AVBL
MIDWAY NOS*    NOT AVBL
FRENCH FRIGATE NOT AVBL
$$

PHZ110>124-180-040600-
BUOY REPORTS

STATION/POSITION TIME  TEMP    WIND        PRES    WAVE   SWELL
                       AIR SEA DIR/SP/G            HT/PER HT/DIR
                 (UTC) (F)     (DEG/KT/KT) (MB)    (FT/S) (FT/D)
BUOY 51001       0400   78 79   90/ 12/ 14 1017.9R
BUOY 51101       0450   76 76  100/ 14/ 16 1020.4R   6/ 8   5/ 70
BUOY 51100       NOT AVBL
BUOY 51002       0450   76 78   80/ 17/ 19 1016.0R   7/ 8   5/ 90
BUOY 51003       0450   77 78   60/ 14/ 19 1017.4R   6/ 8   5/ 80
BUOY 51004       0450   79 79   60/ 17/ 19 1017.1R   7/ 7   3/140
BARBERS PT BUOY  NOT AVBL
WAIMEA BAY BUOY  0404      78                N/A     6/ 8   2
KAILUA BAY BUOY  0411      78                N/A     7/ 8   2/ 30
LANAI BUOY       0415      79                N/A     3/13   2/210
BARBERS PT 2     0403      79                N/A     4/13   2/190
PAUWELA MAUI     0409      77                N/A     7/ 8   2
HILO             0412      78                N/A     6/ 8   2/350
KANEOHE BAY BUOY 0406      78                N/A     8/ 8   2/ 20
HANALEI KAUAI    NOT AVBL
KAHULUI HARBOR   0400   76 78   40/ 18/ 23 1017.6R
HONOLULU HARBOR  0400   76 78   50/  5/  8 1019.0R
KILO NALU        NOT AVBL
HILO HARBOR      0400   78 77   40/  6/ 10 1018.4R
MOKUOLOE         0400   75 79   50/ 13/ 16 1019.0R
NAWILIWILI       0400   77 80   60/ 12/ 19 1019.3R
WHOTS BUOY       NOT AVBL
BUOY 51028       NOT AVBL
$$

......................KEY........................................
  SKY/WX - SKY CONDITIONS/PRESENT WEATHER
  TMP    - TEMPERATURE IN FAHRENHEIT
  DWPT   - DEWPOINT IN FAHRENHEIT
  RH     - RELATIVE HUMIDITY IN PERCENT
  WIND   - DIRECTION AND SPEED /MPH FOR ISLANDS...KTS FOR BUOYS/
  PRES   - MEAN SEA LEVEL PRESSURE IN INCHES OF HG
  VSB    - VISIBILITY IN MILES
  HX     - HEAT INDEX
  WCI    - WIND CHILL INDEX
  VRB    - VARIABLE WIND DIRECTION
  N/A    - NOT AVAILABLE




USA.gov is the U.S. government's official web portal to all federal, state and local government web resources and services.